Tucson, AZ

5:31 PM MST on December 09, 2016 (GMT -0700)
Tucson International

Weather History for KTUS - October, 2012

Change the Weather History Date:

Friday, October 26, 2012

  Actual Average Record
Temperature  
Mean Temperature 64 °F 68 °F  
Max Temperature 83 °F 81 °F 96 °F (2001)
Min Temperature 44 °F 54 °F 32 °F (1899)
Degree Days  
Heating Degree Days 1 2  
Month to date heating degree days 2 13  
Since 1 July heating degree days 2 13  
Cooling Degree Days 0 4  
Month to date cooling degree days 235 194  
Year to date cooling degree days 3497 3101  
Growing Degree Days 13 (Base 50)    
Moisture  
Dew Point 17 °F    
Average Humidity 21    
Maximum Humidity 33    
Minimum Humidity 8    
Precipitation  
Precipitation 0.00 in 0.02 in 1.61 in (1996)
Month to date precipitation T 0.78  
Year to date precipitation 6.70 9.98  
Snow  
Snow 0.00 in - - ()
Month to date snowfall 0.0  
Snow Depth 0.00 in    
Sea Level Pressure  
Sea Level Pressure 29.93 in    
Wind  
Wind Speed 6 mph (West)    
Max Wind Speed 12 mph    
Max Gust Speed 16 mph    
Visibility 10 miles    
Events      
T = Trace of Precipitation, MM = Missing Value Source: NWS Daily Summary

Daily Weather History Graph

Daily Weather History Graph

Search for Another Location

Airport or City:

Trip Planner

Search our weather history database for the weather conditions in past years. The results will help you decide how hot, cold, wet, or windy it might be!

Date:

Astronomy

Oct. 26, 2012 Rise Set
Actual Time 6:36 AM MST 5:38 PM MST
Civil Twilight 6:11 AM MST 6:03 PM MST
Nautical Twilight 5:42 AM MST 6:32 PM MST
Astronomical Twilight 5:13 AM MST 7:01 PM MST
Moon 3:49 PM MST (10/26) 3:44 AM MST (10/26)
Length of Visible Light 11h 52m
Length of Day
11h 02m
Waxing Gibbous, 91% of the Moon is Illuminated
Oct 26
Waxing Gibbous
Oct 29
Full
Nov 6
Last Quarter
Nov 13
New
Nov 20
First Quarter

Hourly Weather History & Observations

Time (MST) Temp. Dew Point Humidity Pressure Visibility Wind Dir Wind Speed Gust Speed Precip Events Conditions
12:53 AM 55.9 °F 16.0 °F 21% 29.94 in 10.0 mi SE 6.9 mph - N/A   Clear
1:53 AM 54.0 °F 16.0 °F 22% 29.93 in 10.0 mi ESE 3.5 mph - N/A   Clear
2:53 AM 52.0 °F 15.1 °F 23% 29.94 in 10.0 mi ESE 3.5 mph - N/A   Clear
3:53 AM 48.9 °F 15.1 °F 26% 29.93 in 10.0 mi SE 3.5 mph - N/A   Clear
4:53 AM 46.9 °F 15.1 °F 28% 29.96 in 10.0 mi South 3.5 mph - N/A   Clear
5:53 AM 48.0 °F 16.0 °F 28% 29.98 in 10.0 mi South 5.8 mph - N/A   Clear
6:53 AM 45.0 °F 17.1 °F 33% 29.99 in 10.0 mi Calm Calm - N/A   Clear
7:53 AM 54.0 °F 16.0 °F 22% 30.00 in 10.0 mi SSE 5.8 mph - N/A   Clear
8:53 AM 60.1 °F 18.0 °F 20% 30.00 in 10.0 mi NW 3.5 mph - N/A   Clear
9:53 AM 66.9 °F 19.0 °F 16% 30.00 in 10.0 mi NNE 8.1 mph - N/A   Clear
10:53 AM 73.0 °F 17.1 °F 12% 29.97 in 10.0 mi NNW 8.1 mph - N/A   Clear
11:53 AM 77.0 °F 17.1 °F 10% 29.94 in 10.0 mi NNW 10.4 mph - N/A   Clear
12:53 PM 79.0 °F 16.0 °F 9% 29.90 in 10.0 mi NW 6.9 mph - N/A   Clear
1:53 PM 81.0 °F 16.0 °F 9% 29.87 in 10.0 mi North 8.1 mph - N/A   Clear
2:53 PM 82.0 °F 16.0 °F 8% 29.86 in 10.0 mi NNW 5.8 mph - N/A   Clear
3:53 PM 82.0 °F 16.0 °F 8% 29.85 in 10.0 mi NW 8.1 mph - N/A   Clear
4:53 PM 81.0 °F 17.1 °F 9% 29.85 in 10.0 mi NW 10.4 mph - N/A   Clear
5:53 PM 75.9 °F 17.1 °F 11% 29.87 in 10.0 mi NW 8.1 mph - N/A   Clear
6:53 PM 73.9 °F 17.1 °F 12% 29.90 in 10.0 mi WNW 6.9 mph - N/A   Clear
7:53 PM 66.0 °F 19.9 °F 17% 29.91 in 10.0 mi SW 3.5 mph - N/A   Clear
8:53 PM 63.0 °F 19.0 °F 18% 29.92 in 10.0 mi SW 3.5 mph - N/A   Clear
9:53 PM 60.8 °F 17.6 °F 19% 30.00 in 10.0 mi SSE 4.6 mph - N/A   Clear
10:53 PM 57.9 °F 17.1 °F 20% 29.90 in 10.0 mi SE 3.5 mph - N/A   Clear
11:53 PM 57.2 °F 17.6 °F 21% 29.98 in 10.0 mi SSE 5.8 mph - N/A   Clear